Back to catalog

BLACKJACK ACES-1

AliveMilitarySSO
NORAD 56956·PAYLOAD·🇺🇸 United States

Launched Jun 12, 2023 from Vandenberg Space Force Base

Loading…

Next Passes (next 24 hours)

TLE

FreshSource: Space-Track

Epoch: Sep 13, 2026, 21:52 UTC

1 56956U 23084AA  26256.91146833  .00005134  00000-0  25035-3 0  9995
2 56956  97.6327  32.7193 0001350 105.9241 254.2142 15.18774506130360

Track BLACKJACK ACES-1 in real time with AllMySat

Download on the App Store